Overview Statistics Trail Chart Weather Telemetry Raw packets
 

This is the latest recevied weather packets stored in our database for station/object N8BAP. If no packets are shown the sender has not sent any weather packets the latest 10 day(s).

<< 1 2 3 4 5 6 7 >>
Time Temp. Humidity Pressure Rain* Wind** Luminosity Snow
1788612010 20.56° C 96% 1021.3 hPa 0 mm - 40 W/m² -
1788611705 20.56° C 96% 1021.5 hPa 0 mm - 36 W/m² -
1788611402 20° C 96% 1021.4 hPa 0 mm - 42 W/m² -
1788611101 20° C 96% 1021.3 hPa 0 mm - 36 W/m² -
1788610823 20° C 96% 1021 hPa 0 mm - 30 W/m² -
1788610491 20° C 96% 1021.2 hPa 0 mm - 26 W/m² -
1788610190 20° C 96% 1021.5 hPa 0 mm - 23 W/m² -
1788609879 20° C 96% 1021.5 hPa 0 mm - 25 W/m² -
1788609574 20° C 96% 1021 hPa 1.78 mm - 26 W/m² -
1788609273 20° C 96% 1021.2 hPa 1.78 mm - 19 W/m² -
1788608969 20° C 96% 1021.3 hPa 0 mm - 17 W/m² -
1788608668 20° C 96% 1021.4 hPa 0 mm - 10 W/m² -
1788608361 20° C 96% 1021.1 hPa 0 mm - 7 W/m² -
1788608057 20° C 96% 1021.4 hPa 0 mm - 6 W/m² -
1788607752 20° C 96% 1021.2 hPa 0 mm - 7 W/m² -
1788607447 20° C 96% 1021.2 hPa 0 mm - 3 W/m² -
1788607143 20° C 96% 1021.5 hPa 1.27 mm - 1 W/m² -
1788606843 20° C 95% 1021.6 hPa 3.05 mm - 0 W/m² -
1788606542 20° C 95% 1021.7 hPa 3.05 mm - 0 W/m² -
1788606237 20° C 95% 1021.6 hPa 1.27 mm - 0 W/m² -
1788605932 20° C 95% 1021.5 hPa 0 mm - 0 W/m² -
1788605631 19.44° C 95% 1021 hPa 0 mm - 0 W/m² -
1788605325 19.44° C 95% 1021 hPa 0 mm - 0 W/m² -
1788605022 19.44° C 94% 1021.1 hPa 0 mm - 0 W/m² -
1788604721 20° C 94% 1021.1 hPa 0 mm - 0 W/m² -

* Rain latest hour (hover to see other rain measurements)
** Current wind speed in m/s (hover to see current wind gust speed)